• în România
  • Lista ţărilor
  • Pe 7 zile
  • Temperatura apei
  • Hartă satelitară
  • Meteo pe hartă
  • Widget-uri
  • user-avatar
    Intrare

    Meteo pe oră la Darwin

    Astăzi, 19 Octombrie, Vineri

    Timp Temperatura Precipitaţii Vânt Presiune Umiditate
    00:00 +30°C° 0.7 mm 2 m/s 759 mmHg 75%
    01:00 +30°C° 0.2 mm 2 m/s 759 mmHg 75%
    02:00 +29°C° 0.2 mm 2 m/s 758 mmHg 76%
    03:00 +29°C° 0 mm 1 m/s 758 mmHg 75%
    04:00 +29°C° 0 mm 1 m/s 759 mmHg 75%
    05:00 +29°C° 0 mm 1 m/s 759 mmHg 76%
    06:00 +29°C° 0 mm 1 m/s 759 mmHg 76%
    07:00 +30°C° 0 mm 1 m/s 759 mmHg 71%
    08:00 +31°C° 0 mm 1 m/s 759 mmHg 67%
    09:00 +34°C° 0 mm 1 m/s 760 mmHg 55%
    10:00 +36°C° 0 mm 1 m/s 759 mmHg 48%
    11:00 +40°C° 0 mm 2 m/s 759 mmHg 41%
    12:00 +42°C° 0 mm 2 m/s 758 mmHg 34%
    13:00 +41°C° 0 mm 2 m/s 758 mmHg 37%
    14:00 +39°C° 0 mm 3 m/s 757 mmHg 40%
    15:00 +38°C° 0 mm 4 m/s 757 mmHg 43%
    16:00 +37°C° 0.2 mm 4 m/s 757 mmHg 47%
    17:00 +36°C° 0.2 mm 4 m/s 757 mmHg 52%
    18:00 +35°C° 0.2 mm 4 m/s 757 mmHg 56%
    19:00 +34°C° 0 mm 4 m/s 757 mmHg 59%
    20:00 +34°C° 0 mm 4 m/s 758 mmHg 62%
    21:00 +33°C° 0 mm 4 m/s 758 mmHg 66%
    22:00 +33°C° 0.3 mm 4 m/s 758 mmHg 68%
    23:00 +31°C° 0.3 mm 3 m/s 758 mmHg 69%

    Mâine, 20 Octombrie, Sâmbătă

    Timp Temperatura Precipitaţii Vânt Presiune Umiditate
    00:00 +31°C° 0.3 mm 3 m/s 758 mmHg 71%
    01:00 +30°C° 0.5 mm 3 m/s 758 mmHg 73%
    02:00 +30°C° 0.5 mm 2 m/s 758 mmHg 75%
    03:00 +30°C° 0.5 mm 2 m/s 758 mmHg 77%
    04:00 +30°C° 1.1 mm 2 m/s 758 mmHg 77%
    05:00 +29°C° 1.1 mm 1 m/s 758 mmHg 76%
    06:00 +29°C° 1.1 mm 1 m/s 759 mmHg 76%
    07:00 +31°C° 0 mm 1 m/s 759 mmHg 68%
    08:00 +33°C° 0 mm 1 m/s 759 mmHg 60%
    09:00 +35°C° 0 mm 1 m/s 760 mmHg 52%
    10:00 +37°C° 0 mm 2 m/s 759 mmHg 47%
    11:00 +39°C° 0 mm 2 m/s 758 mmHg 42%
    12:00 +40°C° 0 mm 3 m/s 758 mmHg 37%
    13:00 +39°C° 0 mm 3 m/s 757 mmHg 39%
    14:00 +38°C° 0 mm 3 m/s 757 mmHg 42%
    15:00 +37°C° 0 mm 4 m/s 756 mmHg 44%
    16:00 +37°C° 0 mm 4 m/s 756 mmHg 47%
    17:00 +36°C° 0 mm 5 m/s 756 mmHg 50%
    18:00 +35°C° 0 mm 5 m/s 756 mmHg 53%
    19:00 +34°C° 0.1 mm 4 m/s 757 mmHg 57%
    20:00 +33°C° 0.1 mm 3 m/s 757 mmHg 61%
    21:00 +33°C° 0.1 mm 3 m/s 758 mmHg 64%
    22:00 +31°C° 0.1 mm 3 m/s 758 mmHg 67%
    23:00 +31°C° 0.1 mm 3 m/s 758 mmHg 69%

    Poimâine, 21 Octombrie, Duminică

    Timp Temperatura Precipitaţii Vânt Presiune Umiditate
    00:00 +31°C° 0.1 mm 3 m/s 759 mmHg 71%
    01:00 +30°C° 0.2 mm 3 m/s 759 mmHg 72%
    02:00 +30°C° 0.2 mm 3 m/s 758 mmHg 73%
    03:00 +30°C° 0.2 mm 3 m/s 758 mmHg 74%
    04:00 +29°C° 0 mm 2 m/s 758 mmHg 75%
    05:00 +29°C° 0 mm 2 m/s 758 mmHg 75%
    06:00 +29°C° 0 mm 2 m/s 759 mmHg 75%
    07:00 +31°C° 0 mm 2 m/s 759 mmHg 67%
    08:00 +34°C° 0 mm 2 m/s 759 mmHg 59%
    09:00 +36°C° 0 mm 2 m/s 759 mmHg 50%
    10:00 +37°C° 0 mm 2 m/s 759 mmHg 45%
    11:00 +39°C° 0 mm 2 m/s 758 mmHg 40%
    12:00 +40°C° 0 mm 3 m/s 758 mmHg 35%
    13:00 +39°C° 0 mm 3 m/s 757 mmHg 36%
    14:00 +40°C° 0 mm 4 m/s 757 mmHg 38%
    15:00 +38°C° 0 mm 4 m/s 756 mmHg 39%
    16:00 +37°C° 0 mm 4 m/s 756 mmHg 43%
    17:00 +36°C° 0 mm 5 m/s 756 mmHg 47%
    18:00 +35°C° 0 mm 5 m/s 756 mmHg 51%
    19:00 +34°C° 0.1 mm 4 m/s 757 mmHg 56%
    20:00 +33°C° 0.1 mm 4 m/s 757 mmHg 61%
    21:00 +31°C° 0.1 mm 3 m/s 758 mmHg 66%
    22:00 +31°C° 0 mm 3 m/s 758 mmHg 68%
    23:00 +31°C° 0 mm 3 m/s 758 mmHg 70%

    22 Octombrie, Luni

    Timp Temperatura Precipitaţii Vânt Presiune Umiditate
    00:00 +30°C° 0 mm 2 m/s 758 mmHg 72%
    01:00 +30°C° 0 mm 2 m/s 758 mmHg 73%
    02:00 +30°C° 0 mm 2 m/s 758 mmHg 74%
    03:00 +30°C° 0 mm 2 m/s 757 mmHg 74%
    04:00 +30°C° 0 mm 2 m/s 758 mmHg 75%
    05:00 +29°C° 0 mm 2 m/s 758 mmHg 75%
    06:00 +29°C° 0 mm 2 m/s 758 mmHg 75%
    07:00 +31°C° 0 mm 2 m/s 758 mmHg 66%
    08:00 +34°C° 0 mm 2 m/s 759 mmHg 57%
    09:00 +36°C° 0 mm 2 m/s 759 mmHg 47%
    10:00 +38°C° 0 mm 2 m/s 759 mmHg 42%
    11:00 +40°C° 0 mm 3 m/s 758 mmHg 38%
    12:00 +42°C° 0 mm 3 m/s 758 mmHg 33%
    13:00 +41°C° 0 mm 4 m/s 757 mmHg 36%
    14:00 +38°C° 0 mm 4 m/s 756 mmHg 40%
    15:00 +37°C° 0 mm 5 m/s 755 mmHg 43%
    16:00 +36°C° 0.1 mm 5 m/s 756 mmHg 47%
    17:00 +35°C° 0.1 mm 5 m/s 756 mmHg 51%
    18:00 +35°C° 0.1 mm 5 m/s 756 mmHg 54%
    19:00 +34°C° 0 mm 4 m/s 757 mmHg 58%
    20:00 +33°C° 0 mm 4 m/s 757 mmHg 62%
    21:00 +33°C° 0 mm 4 m/s 758 mmHg 66%
    22:00 +31°C° 0.2 mm 3 m/s 758 mmHg 67%
    23:00 +31°C° 0.2 mm 3 m/s 758 mmHg 69%

    23 Octombrie, Marţi

    Timp Temperatura Precipitaţii Vânt Presiune Umiditate
    00:00 +30°C° 0.2 mm 2 m/s 758 mmHg 71%
    01:00 +30°C° 0 mm 2 m/s 757 mmHg 71%
    02:00 +30°C° 0 mm 2 m/s 757 mmHg 71%
    03:00 +30°C° 0 mm 2 m/s 757 mmHg 72%
    04:00 +30°C° 0 mm 2 m/s 757 mmHg 72%
    05:00 +30°C° 0 mm 2 m/s 757 mmHg 72%
    06:00 +29°C° 0 mm 2 m/s 758 mmHg 72%
    07:00 +31°C° 0 mm 2 m/s 758 mmHg 66%
    08:00 +32°C° 0 mm 2 m/s 758 mmHg 59%
    09:00 +35°C° 0 mm 2 m/s 758 mmHg 52%
    10:00 +37°C° 0 mm 3 m/s 758 mmHg 46%
    11:00 +38°C° 0 mm 3 m/s 757 mmHg 41%
    12:00 +41°C° 0 mm 4 m/s 757 mmHg 35%
    13:00 +40°C° 0 mm 4 m/s 756 mmHg 36%
    14:00 +38°C° 0 mm 4 m/s 756 mmHg 38%
    15:00 +37°C° 0 mm 5 m/s 755 mmHg 40%
    16:00 +36°C° 0 mm 4 m/s 755 mmHg 43%
    17:00 +36°C° 0 mm 4 m/s 756 mmHg 45%
    18:00 +35°C° 0 mm 4 m/s 756 mmHg 48%
    19:00 +34°C° 0.3 mm 4 m/s 757 mmHg 52%
    20:00 +33°C° 0.3 mm 4 m/s 757 mmHg 56%
    21:00 +31°C° 0.3 mm 3 m/s 758 mmHg 60%
    22:00 +31°C° 0 mm 3 m/s 758 mmHg 58%
    23:00 +31°C° 0 mm 2 m/s 758 mmHg 57%

    24 Octombrie, Miercuri

    Timp Temperatura Precipitaţii Vânt Presiune Umiditate
    00:00 +31°C° 0 mm 2 m/s 757 mmHg 55%
    01:00 +31°C° 0 mm 2 m/s 757 mmHg 57%
    02:00 +31°C° 0 mm 2 m/s 757 mmHg 60%
    03:00 +31°C° 0 mm 2 m/s 757 mmHg 62%
    04:00 +30°C° 0 mm 2 m/s 757 mmHg 64%
    05:00 +30°C° 0 mm 2 m/s 758 mmHg 67%
    06:00 +30°C° 0 mm 1 m/s 758 mmHg 69%
    07:00 +32°C° 0 mm 2 m/s 758 mmHg 62%
    08:00 +35°C° 0 mm 2 m/s 758 mmHg 54%
    09:00 +37°C° 0 mm 2 m/s 759 mmHg 46%
    10:00 +38°C° 0 mm 3 m/s 758 mmHg 41%
    11:00 +40°C° 0 mm 3 m/s 758 mmHg 36%
    12:00 +43°C° 0 mm 4 m/s 757 mmHg 31%
    13:00 +41°C° 0 mm 4 m/s 757 mmHg 35%
    14:00 +40°C° 0 mm 5 m/s 756 mmHg 39%
    15:00 +38°C° 0 mm 6 m/s 756 mmHg 43%
    16:00 +36°C° 0.1 mm 5 m/s 756 mmHg 46%
    17:00 +35°C° 0.1 mm 5 m/s 756 mmHg 49%
    18:00 +34°C° 0.1 mm 5 m/s 756 mmHg 52%
    19:00 +34°C° 0 mm 4 m/s 757 mmHg 55%
    20:00 +33°C° 0 mm 3 m/s 757 mmHg 58%
    21:00 +31°C° 0 mm 3 m/s 758 mmHg 62%
    22:00 +31°C° 0 mm 3 m/s 758 mmHg 64%
    23:00 +31°C° 0 mm 3 m/s 758 mmHg 66%
    Arată mai mult